Portada
METAR-TAF:

METAR-TAF

Aeroports :

South Wood County Airport (Alexander Field)

Wisconsin Rapids, Wisconsin, Estats Units d'Amèrica

latitud: 44-21-33N, longitud: 089-50-13W, altitud: 311 m

Observació

L'informe es va fer fa 12 minuts, a les 04:46 UTC
Vent calma
Temperatura 5°C
Humitat 87%
Pressió 1028 hPa
Visibilitat: 4.8 km
Cel clar
boirina

METAR: KISW 220446Z AUTO 00000KT 3SM BR CLR 05/03 A3035 RMK AO2 T00500033 TSNO

Hora: 23:58 (04:58 UTC)


TAF: manca

Observacions i pronòstics meteorològics de més de 4000 aeroports (METAR i TAF).

Les estacions disponibles són els punts grocs i vermells al mapa.

Posi el ratolí al punt desitjat per veure el nom de l'estació.

Feu clic per veure les observacions i els pronòstics meteorològics.

Per canviar el mapa: feu clic els botons verds amb una creu de color negre per apropar; al botó verd amb un guió per allunyar la imatge; o en les fletxes verdes per a mapes adjacents.


METAR-TAF: